Location: Bush Observatory
(40.2653°N, 94.3194°W)
Time: 22:38:01
(UTC-05:00)

Iridium 13 - Visible Passes

Search period start: 25 September 2016 00:00
Search period end: 05 October 2016 00:00
Orbit: 776 x 779 km, 86.4° (Epoch: 25 September)

Date Brightness Start Highest point End Pass type
(mag) Time Alt. Az. Time Alt. Az. Time Alt. Az.
25 Sep 9.0 06:23:57 10° ESE 06:26:16 13° ENE 06:28:37 10° NE visible
25 Sep 7.7 20:12:41 10° NNW 20:17:10 30° W 20:21:37 10° SW visible
26 Sep 6.5 19:38:43 10° NNW 19:43:49 55° W 19:48:53 10° SSW visible
27 Sep 9.1 20:48:56 10° WNW 20:50:15 11° WNW 20:51:35 10° W visible
28 Sep 8.6 06:22:35 10° SE 06:26:10 19° E 06:29:46 10° NE visible
28 Sep 8.4 20:13:19 10° NNW 20:17:06 21° W 20:20:54 10° SW visible
29 Sep 7.3 19:39:03 10° NNW 19:43:50 37° W 19:48:35 10° SSW visible
01 Oct 8.0 06:21:46 10° SE 06:26:05 27° E 06:30:26 10° NNE visible
01 Oct 8.8 20:14:18 10° NW 20:17:00 14° WNW 20:19:42 10° WSW visible
02 Oct 8.8 05:50:01 10° ESE 05:52:53 15° ENE 05:55:44 10° NE visible
02 Oct 8.1 19:39:31 10° NNW 19:43:48 26° W 19:48:04 10° SW visible
04 Oct 7.2 06:21:16 10° SSE 06:26:04 39° E 06:30:53 10° NNE visible
